Regional Weather Roundup
Issued by NWS Grand Forks, ND

Home | Current Version | Previous Version | Graphics & Text | Print | Product List | Glossary On
Versions: 1 2 3 4 5 6 7 8 9 10 11 12 13 14 15 16 17 18 19 20 21 22 23 24 25 26 27 28 29 30 31 32 33 34 35 36 37 38 39 40 41 42 43 44 45 46 47 48 49 50
000
ASUS43 KFGF 231731
RWRFGF
PRAIRIE TO PINES  WEATHER ROUNDUP
NATIONAL WEATHER SERVICE EASTERN NORTH DAKOTA/GRAND FORKS ND
1200 PM CDT WED JUL 23 2014

 **SATELLITE DATA USED TO AUGMENT SKY COVER AT AUTOMATED STATIONS**
 *****  WEATHER ACROSS EASTERN NORTH DAKOTA  *****

CITY           SKY/WX    TMP DP  RH WIND       PRES   REMARKS
GRAND FORKS    CLOUDY    70  55  59 N8        30.30S
GRAND FRKS AFB CLOUDY    69  59  70 N7        30.32S
GRAND FRKS NWS   N/A     70 N/A N/A VRB3        N/A
DEVILS LAKE    SUNNY     68  54  60 E10       30.31S
FARGO          MOSUNNY   74  59  59 N8        30.29S
WAHPETON ARPT  PTSUNNY   77  48  36 CALM      30.28S
$$

 ***** WEATHER ACROSS CENTRAL AND WESTERN NORTH DAKOTA  *****

CITY           SKY/WX    TMP DP  RH WIND       PRES   REMARKS
BISMARCK       CLOUDY    76  62  62 SE12      30.26F
MINOT          CLOUDY    70  63  78 E15       30.26F
JAMESTOWN      MOSUNNY   72  58  61 SE7       30.30F
MINOT AFB      PTSUNNY   70  66  88 E18       30.25F
GARRISON         N/A     75  65  70 SE12G18   30.25S
WILLISTON      SUNNY     82  62  50 SE13G21   30.19F
DICKINSON      SUNNY     76  64  66 SE16      30.20F
HETTINGER      MOSUNNY   77  62  59 SE10      30.23F
$$

 *****  OTHER AIRPORT OBSERVATIONS IN OUR AREA  *****

CITY           SKY/WX    TMP DP  RH WIND       PRES   REMARKS
WALHALLA         N/A     66  54  63 N6          N/A
GRAFTON AIRPOR PTSUNNY   68  55  64 N9        30.31S
VALLEY CITY AR FAIR      72  59  64 NE3       30.31S
CANDO          CLOUDY    68  54  60 E5        30.33S
CAVALIER APRT  FAIR      68  54  60 NE6       30.32S
GWINNER        SUNNY     73  57  56 S5        30.30F
SHEYENNE NWR     N/A     75  60  60 SW2       29.95
ROLLA          PTSUNNY   66  50  55 E9        30.34F
 ***** THE ABOVE OBSERVATIONS ARE NON NWS ARE NOT QUALITY
       CONTROLLED AND MAY MIS-REPORT RAIN FOR SNOW...
$$

  *****  WEATHER ACROSS NORTHERN MINNESOTA  *****

CITY           SKY/WX    TMP DP  RH WIND       PRES   REMARKS
FLAG ISLAND    SUNNY     66  48  52 N6        30.29S
WARROAD        PTSUNNY   66  57  72 E7        30.31S
ROSEAU         MOSUNNY   70  57  64 CALM      30.29F
HALLOCK          N/A     70  54  56 NE6       30.30F
THF RVR FALLS  MOSUNNY   70  55  60 N9        30.29F
BAUDETTE       PTSUNNY   68  53  58 VRB3      30.30F
WASKISH        MOSUNNY   70  57  64 CALM      30.28S
CROOKSTON      PTSUNNY   70  55  60 N8        30.30F
$$
  *****  WEATHER ACROSS CENTRAL AND WEST MINNESOTA  *****

CITY           SKY/WX    TMP DP  RH WIND       PRES   REMARKS
FOSSTON        PTSUNNY   72  52  49 NW5       30.30S
BEMIDJI        MOSUNNY   71  52  52 N8        30.28S
PARK RAPIDS    MOSUNNY   73  53  49 N12G17    30.28S
ELBOW LAKE     FAIR      73  55  53 N6        30.28F
WADENA         PTSUNNY   70  57  64 NW5       30.28F
DETROIT LAKES  PTSUNNY   72  55  56 N10       30.31R
MOORHEAD       MOSUNNY   73  63  68 N5        30.29S
FERGUS FALLS   PTSUNNY   75  50  41 NW6       30.28S
MORRIS MN      SUNNY     77  55  47 NE3       30.27F
STAPLES        PTSUNNY   70  54  56 NW8       30.28S
$$
  *****  WEATHER ELSEWHERE ACROSS MINNESOTA  *****

CITY           SKY/WX    TMP DP  RH WIND       PRES   REMARKS
DULUTH         MOSUNNY   72  52  49 N9        30.25F
INTRNTL FALLS  PTSUNNY   67  47  48 N7        30.28F
ELY            PTSUNNY   70  50  49 NE6       30.26F
CLOQUET        PTSUNNY   70  52  52 N10       30.25S
WHEATON        MOSUNNY   75  57  53 E5        30.29F
BRAINERD       SUNNY     72  52  49 N7        30.27S
HIBBING        MOSUNNY   71  52  50 N10G17    30.27S
ALEXANDRIA     MOSUNNY   73  53  49 N9        30.30S
SAINT CLOUD    MOSUNNY   77  54  44 NW9       30.25F
MINNEAPOLIS    MOSUNNY   78  51  38 VRB7      30.23F
$$

  *****  WEATHER ACROSS SOUTH DAKOTA  *****

CITY           SKY/WX    TMP DP  RH WIND       PRES   REMARKS
SIOUX FALLS    MOSUNNY   77  54  44 VRB3      30.28F
BROOKINGS      NOT AVBL
WATERTOWN      SUNNY     75  53  46 MISG      30.30S
HURON          SUNNY     76  56  49 SE8       30.27F
SISSETON         N/A     74  56  53 VRB5      30.28F
ABERDEEN       SUNNY     75  55  49 SE9       30.28F
MITCHELL       PTSUNNY   79  56  45 SE9       30.28F
PIERRE         SUNNY     79  58  48 SE22      30.24F
MOBRIDGE       SUNNY     77  61  57 S16G22    30.24F
RAPID CITY     SUNNY     78  63  59 SE18      30.24R
$$

  *****  SOME WEATHER IN NEARBY STATES *****

CITY           SKY/WX    TMP DP  RH WIND       PRES   REMARKS
GLASGOW MT     MOSUNNY   82  58  43 E18       30.13F
GREAT FALLS MT MOSUNNY   75  58  55 E10       30.10F
CHEYENNE WY    PTSUNNY   71  60  68 S14G26    30.41F
SCOTTSBLUFF NE SUNNY     82  60  47 SE16G24   30.30F
OMAHA NE       MOSUNNY   80  57  45 CALM      30.23F
DES MOINES IA  PTSUNNY   82  59  45 E9        30.21S
DAVENPORT IA   SUNNY     76  57  51 NE17      30.19F
CHICAGO IL     MOSUNNY   71  51  49 NE18      30.17R
EAU CLAIRE WI  MOSUNNY   79  54  41 VRB5      30.21F
LA CROSSE WI   MOSUNNY   77  57  50 VRB6      30.21F
$$

  *****  SOME NATIONAL WEATHER *****

CITY           SKY/WX    TMP DP  RH WIND       PRES   REMARKS
LA GUARDIA NY  MOSUNNY   86  71  60 S14G20    29.88F HX  91
RALEIGH NC     MOSUNNY   89  73  59 VRB3      30.03F HX  97
ATLANTA GA     PTSUNNY   82  68  62 CALM      30.09F
NEW ORLEANS LA LGT RAIN  77  72  84 CALM      30.06S
OKLAHOMA CITY  SUNNY     92  74  55 NW3       30.14F HX 101
ALBUQUERQUE NM MOSUNNY   80  55  42 VRB3      30.38F
SALT LAKE CITY MOSUNNY   94  32  11 S23       30.11F
LOS ANGELES CA SUNNY     76  61  59 W8        30.01S
BOISE ID       MOSUNNY   78  54  43 CALM      30.06F
SEATTLE WA     LGT RAIN  61  61 100 S3        30.01S FOG
$$

*** WEATHER ACROSS MANITOBA...SASKATCHEWAN AND ONTARIO ***
                ***ONTARIO***

CITY           SKY/WX    TMP DP  RH WIND       PRES   REMARKS
GERALDTON      PTSUNNY   63  48  59 N6        30.20S
THUNDER BAY    PTSUNNY   68  50  52 VRB2      30.23F
SIOUX LOOKOUT  PTSUNNY   66  48  52 N5        30.29S
TORONTO        PTSUNNY   70  57  64 NW20G26   29.94R
BIG TROUT LK   SUNNY     70  52  52 W12       30.10F
PICKLE LAKE    PTSUNNY   66  45  45 NW8G17    30.22F
DRYDEN         PTSUNNY   66  48  52 W6        30.29F
KENORA         PTSUNNY   64  50  59 NE6       30.32F
$$
                *** MANITOBA***

CITY           SKY/WX    TMP DP  RH WIND       PRES   REMARKS
BRANDON        MOSUNNY   70  50  49 E9        30.33F
DAUPHIN        SUNNY     72  52  49 SE10      30.32F
ISLAND LAKE    MOSUNNY   72  52  49 W10       30.24F
PILOT MOUND      N/A     66  48  52 E8          N/A
THE PAS        MOSUNNY   77  50  38 NW3       30.26F
THOMPSON       MOSUNNY   75  54  46 W8G17     30.21F
WINNIPEG       MOSUNNY   70  50  49 N8        30.33S
LYNN LAKE      SUNNY     77  48  36 W12       30.20F
CHURCHILL      PTSUNNY   61  52  72 N14G21    30.07S SMOKE
GILLAM         CLOUDY    73  54  49 W13       30.12F
$$
                ***SASKATCHEWAN***

CITY           SKY/WX    TMP DP  RH WIND       PRES   REMARKS
ESTEVAN        PTSUNNY   72  63  73 E12       30.25F
KINDERSLEY     PTSUNNY   73  63  68 SE16G25   30.12F
LLOYDMINSTER   PTSUNNY   73  61  64 S17G24    30.07F
PRINCE ALBERT    N/A     73  57  56 S8G18     30.24S
REGINA         PTSUNNY   75  59  57 SE18      30.24F
YORKTON        SUNNY     72  52  49 SE10G17   30.30F
N. BATTLEFORD  MOSUNNY   73  61  64 SE20G26   30.15F
LA RONGE       MOSUNNY   75  54  46 SE8       30.22F
SASKATOON      CLOUDY    77  57  50 SE16G23   30.21F
SWIFT CURRENT  SUNNY     77  57  50 SE18G25   30.17F
$$
NOTE: THESE ARE AUTOMATED STATIONS WITH LIMITED QUALITY CONTROL
      "FAIR" INDICATES FEW OR NO CLOUDS BELOW 12,000 FEET WITH NO
      SIGNIFICANT WEATHER AND/OR OBSTRUCTIONS TO VISIBILITY.
      SKY/WX - SKY CONDITION AND SIGNIFICANT WEATHER.
      TMP - AIR TEMPERATURE.    DP   - DEWPOINT TEMPERATURE.
      RH  - RELATIVE HUMIDITY.  PRES - PRESSURE.
      HX  - HEAT INDEX.         WCI  - WIND CHILL INDEX.
$


USA.gov is the U.S. government's official web portal to all federal, state and local government web resources and services.